Location: Herm
(49.4830°N, 2.4500°W)
Time: 11:04:07
(UTC+01:00)

Envisat - Visible Passes

Search period start: 23 July 2018 00:00
Search period end: 02 August 2018 00:00
Orbit: 764 x 766 km, 98.2° (Epoch: 22 July)

Date Brightness Start Highest point End Pass type
(mag) Time Alt. Az. Time Alt. Az. Time Alt. Az.
24 Jul 6.1 22:05:35 10° W 22:06:32 10° W 22:07:29 10° WNW visible
27 Jul 5.8 21:52:47 10° WSW 21:55:12 13° W 21:57:37 10° WNW visible
30 Jul 5.7 21:40:42 10° SW 21:43:52 16° W 21:47:04 10° NW visible
